When you browse on this site, cookies collect data to enhance your experience and personalize the content and advertising you see.
Visit our Privacy Policy to learn more. By continuing to use the site, you agree to this use of cookies and data.
  • In Slovakia
  • List of Countries
  • For 7 days
  • Water Temperature
  • Satellite Maps
  • Weather Map
  • Weather Widgets
  • user-avatar
    Login

    Hourly Weather Hobart

    Today, 14 December, Friday

    Time Temperature Precipitation Wind Pressure Humidity
    00:00 +15°C° 0 mm 2 mps 745 mmHg 97%
    01:00 +15°C° 0 mm 2 mps 745 mmHg 97%
    02:00 +15°C° 0 mm 2 mps 745 mmHg 96%
    03:00 +14°C° 0 mm 3 mps 745 mmHg 95%
    04:00 +14°C° 0 mm 3 mps 745 mmHg 94%
    05:00 +14°C° 0 mm 3 mps 745 mmHg 90%
    06:00 +14°C° 0 mm 3 mps 746 mmHg 85%
    07:00 +16°C° 0 mm 3 mps 746 mmHg 81%
    08:00 +17°C° 0 mm 3 mps 747 mmHg 74%
    09:00 +19°C° 0 mm 3 mps 747 mmHg 66%
    10:00 +20°C° 0 mm 3 mps 747 mmHg 61%
    11:00 +21°C° 0 mm 3 mps 747 mmHg 59%
    12:00 +22°C° 0 mm 4 mps 747 mmHg 56%
    13:00 +23°C° 0 mm 4 mps 747 mmHg 54%
    14:00 +23°C° 0 mm 4 mps 747 mmHg 54%
    15:00 +23°C° 0 mm 5 mps 747 mmHg 54%
    16:00 +22°C° 0 mm 5 mps 747 mmHg 57%
    17:00 +21°C° 0 mm 4 mps 748 mmHg 63%
    18:00 +19°C° 0 mm 4 mps 748 mmHg 69%
    19:00 +18°C° 0 mm 4 mps 748 mmHg 75%
    20:00 +17°C° 0 mm 3 mps 748 mmHg 82%
    21:00 +16°C° 0 mm 3 mps 749 mmHg 89%
    22:00 +14°C° 0 mm 3 mps 749 mmHg 96%
    23:00 +14°C° 0 mm 3 mps 749 mmHg 96%

    Tomorrow, 15 December, Saturday

    Time Temperature Precipitation Wind Pressure Humidity
    00:00 +15°C° 0 mm 2 mps 749 mmHg 96%
    01:00 +15°C° 0 mm 2 mps 749 mmHg 96%
    02:00 +14°C° 0 mm 3 mps 749 mmHg 96%
    03:00 +14°C° 0 mm 3 mps 748 mmHg 96%
    04:00 +14°C° 0 mm 3 mps 748 mmHg 96%
    05:00 +16°C° 0.2 mm 3 mps 748 mmHg 95%
    06:00 +16°C° 0.2 mm 3 mps 748 mmHg 94%
    07:00 +16°C° 0.2 mm 3 mps 749 mmHg 93%
    08:00 +16°C° 0.8 mm 3 mps 748 mmHg 94%
    09:00 +17°C° 0.8 mm 3 mps 748 mmHg 94%
    10:00 +17°C° 0.8 mm 3 mps 748 mmHg 95%
    11:00 +17°C° 0.3 mm 3 mps 748 mmHg 94%
    12:00 +18°C° 0.3 mm 4 mps 747 mmHg 93%
    13:00 +19°C° 0.3 mm 4 mps 747 mmHg 92%
    14:00 +19°C° 0.1 mm 4 mps 746 mmHg 92%
    15:00 +19°C° 0.1 mm 4 mps 746 mmHg 93%
    16:00 +19°C° 0.1 mm 4 mps 746 mmHg 93%
    17:00 +19°C° 0.1 mm 5 mps 746 mmHg 94%
    18:00 +19°C° 0.1 mm 5 mps 746 mmHg 95%
    19:00 +19°C° 0.1 mm 5 mps 746 mmHg 96%
    20:00 +19°C° 0.1 mm 5 mps 746 mmHg 96%
    21:00 +19°C° 0.1 mm 5 mps 746 mmHg 96%
    22:00 +19°C° 0.1 mm 5 mps 745 mmHg 96%
    23:00 +19°C° 0.1 mm 5 mps 745 mmHg 96%

    Day after tomorrow, 16 December, Sunday

    Time Temperature Precipitation Wind Pressure Humidity
    00:00 +19°C° 0.1 mm 5 mps 744 mmHg 96%
    01:00 +17°C° 0.1 mm 6 mps 744 mmHg 96%
    02:00 +17°C° 0.1 mm 6 mps 743 mmHg 96%
    03:00 +17°C° 0.1 mm 5 mps 743 mmHg 97%
    04:00 +17°C° 0.1 mm 5 mps 742 mmHg 97%
    05:00 +17°C° 0.3 mm 5 mps 742 mmHg 97%
    06:00 +19°C° 0.3 mm 4 mps 742 mmHg 96%
    07:00 +19°C° 0.3 mm 4 mps 742 mmHg 96%
    08:00 +20°C° 0.1 mm 4 mps 741 mmHg 90%
    09:00 +21°C° 0.1 mm 3 mps 741 mmHg 85%
    10:00 +24°C° 0.1 mm 3 mps 740 mmHg 80%
    11:00 +25°C° 0.2 mm 3 mps 740 mmHg 74%
    12:00 +26°C° 0.2 mm 3 mps 739 mmHg 69%
    13:00 +27°C° 0.2 mm 3 mps 739 mmHg 64%
    14:00 +27°C° 0.8 mm 3 mps 739 mmHg 62%
    15:00 +28°C° 0.8 mm 3 mps 739 mmHg 60%
    16:00 +28°C° 0.8 mm 3 mps 738 mmHg 58%
    17:00 +26°C° 0.8 mm 3 mps 739 mmHg 63%
    18:00 +24°C° 0.8 mm 2 mps 739 mmHg 68%
    19:00 +23°C° 0.8 mm 2 mps 739 mmHg 73%
    20:00 +20°C° 0.3 mm 2 mps 739 mmHg 80%
    21:00 +18°C° 0.3 mm 2 mps 739 mmHg 86%
    22:00 +17°C° 0.3 mm 2 mps 739 mmHg 92%
    23:00 +16°C° 0.8 mm 2 mps 739 mmHg 92%

    17 December, Monday

    Time Temperature Precipitation Wind Pressure Humidity
    00:00 +16°C° 0.8 mm 2 mps 739 mmHg 92%
    01:00 +15°C° 0.8 mm 2 mps 739 mmHg 92%
    02:00 +15°C° 0.6 mm 2 mps 739 mmHg 92%
    03:00 +15°C° 0.6 mm 2 mps 739 mmHg 93%
    04:00 +15°C° 0.6 mm 2 mps 739 mmHg 93%
    05:00 +16°C° 0.2 mm 2 mps 739 mmHg 89%
    06:00 +17°C° 0.2 mm 2 mps 739 mmHg 86%
    07:00 +19°C° 0.2 mm 2 mps 740 mmHg 82%
    08:00 +21°C° 0.1 mm 2 mps 740 mmHg 72%
    09:00 +24°C° 0.1 mm 2 mps 740 mmHg 61%
    10:00 +27°C° 0.1 mm 1 mps 740 mmHg 51%
    11:00 +26°C° 0.5 mm 2 mps 740 mmHg 54%
    12:00 +26°C° 0.5 mm 3 mps 740 mmHg 57%
    13:00 +26°C° 0.5 mm 3 mps 740 mmHg 60%
    14:00 +25°C° 0.6 mm 4 mps 741 mmHg 66%
    15:00 +22°C° 0.6 mm 5 mps 741 mmHg 72%
    16:00 +21°C° 0.6 mm 5 mps 741 mmHg 78%
    17:00 +20°C° 0.1 mm 5 mps 742 mmHg 80%
    18:00 +17°C° 0.1 mm 5 mps 743 mmHg 83%
    19:00 +16°C° 0.1 mm 5 mps 744 mmHg 85%
    20:00 +15°C° 0 mm 5 mps 745 mmHg 87%
    21:00 +15°C° 0 mm 5 mps 745 mmHg 89%
    22:00 +14°C° 0 mm 5 mps 746 mmHg 91%
    23:00 +14°C° 0 mm 5 mps 746 mmHg 92%

    18 December, Tuesday

    Time Temperature Precipitation Wind Pressure Humidity
    00:00 +13°C° 0 mm 4 mps 747 mmHg 93%
    01:00 +13°C° 0 mm 4 mps 747 mmHg 94%
    02:00 +13°C° 0.1 mm 4 mps 747 mmHg 94%
    03:00 +12°C° 0.1 mm 4 mps 747 mmHg 95%
    04:00 +12°C° 0.1 mm 4 mps 748 mmHg 95%
    05:00 +12°C° 0.1 mm 4 mps 748 mmHg 94%
    06:00 +12°C° 0.1 mm 3 mps 749 mmHg 93%
    07:00 +12°C° 0.1 mm 3 mps 749 mmHg 93%
    08:00 +14°C° 0.1 mm 3 mps 749 mmHg 83%
    09:00 +16°C° 0.1 mm 3 mps 750 mmHg 74%
    10:00 +18°C° 0.1 mm 3 mps 750 mmHg 64%
    11:00 +18°C° 0 mm 3 mps 750 mmHg 61%
    12:00 +19°C° 0 mm 3 mps 750 mmHg 58%
    13:00 +20°C° 0 mm 3 mps 750 mmHg 56%
    14:00 +19°C° 0 mm 3 mps 750 mmHg 56%
    15:00 +19°C° 0 mm 3 mps 750 mmHg 57%
    16:00 +19°C° 0 mm 4 mps 750 mmHg 58%
    17:00 +18°C° 0 mm 3 mps 750 mmHg 63%
    18:00 +16°C° 0 mm 3 mps 750 mmHg 69%
    19:00 +14°C° 0 mm 3 mps 750 mmHg 74%
    20:00 +13°C° 0 mm 3 mps 751 mmHg 78%
    21:00 +12°C° 0 mm 3 mps 751 mmHg 82%
    22:00 +12°C° 0 mm 2 mps 751 mmHg 85%
    23:00 +12°C° 0 mm 2 mps 750 mmHg 87%

    19 December, Wednesday

    Time Temperature Precipitation Wind Pressure Humidity
    00:00 +10°C° 0 mm 3 mps 750 mmHg 89%
    01:00 +10°C° 0 mm 3 mps 749 mmHg 91%
    02:00 +10°C° 0 mm 3 mps 749 mmHg 92%
    03:00 +10°C° 0 mm 3 mps 749 mmHg 93%
    04:00 +10°C° 0 mm 3 mps 749 mmHg 93%
    05:00 +11°C° 0 mm 3 mps 748 mmHg 89%
    06:00 +12°C° 0 mm 3 mps 748 mmHg 85%
    07:00 +12°C° 0 mm 4 mps 748 mmHg 81%
    08:00 +14°C° 0.1 mm 4 mps 748 mmHg 75%
    09:00 +15°C° 0.1 mm 4 mps 747 mmHg 70%
    10:00 +17°C° 0.1 mm 5 mps 747 mmHg 64%
    11:00 +19°C° 0 mm 5 mps 746 mmHg 60%
    12:00 +21°C° 0 mm 5 mps 745 mmHg 55%
    13:00 +22°C° 0 mm 6 mps 744 mmHg 51%
    14:00 +23°C° 0.1 mm 6 mps 743 mmHg 52%
    15:00 +23°C° 0.1 mm 6 mps 742 mmHg 54%
    16:00 +23°C° 0.1 mm 7 mps 741 mmHg 55%
    17:00 +22°C° 0.1 mm 6 mps 740 mmHg 59%
    18:00 +21°C° 0.1 mm 6 mps 740 mmHg 63%
    19:00 +20°C° 0.1 mm 6 mps 739 mmHg 68%
    20:00 +19°C° 0.1 mm 6 mps 739 mmHg 73%
    21:00 +16°C° 0.1 mm 6 mps 738 mmHg 79%
    22:00 +15°C° 0.1 mm 5 mps 738 mmHg 85%
    23:00 +15°C° 0.3 mm 5 mps 737 mmHg 87%
    Show more